BHS373 MYEF-MYGF

Flight info

Callsign BHS373
Flight time 1h 7m
Altitude 20000
Route FERGE2 CUDLI DCT CEGUR DCT
Aircraft AT45/M-SDFGIRY/S

Departure

Time 2026-05-05 04:37
Airport Exuma International Airport (MYEF)

Arrival

Time 2026-05-05 05:44
Airport Grand Bahama International Airport (MYGF)
Time Latitude Longitude Altitude Speed Heading
2026-05-05 04:29 23.56355 -75.87329 16 ft 0 kts 82°
2026-05-05 04:32 23.56354 -75.87341 16 ft 2 kts 97°
2026-05-05 04:32 23.56363 -75.87358 16 ft 3 kts 139°
2026-05-05 04:32 23.56366 -75.87361 16 ft 0 kts 145°
2026-05-05 04:33 23.56321 -75.87381 16 ft 17 kts 218°
2026-05-05 04:33 23.56219 -75.87441 16 ft 21 kts 206°
2026-05-05 04:33 23.56149 -75.87500 16 ft 23 kts 251°
2026-05-05 04:33 23.56197 -75.87658 16 ft 19 kts 296°
2026-05-05 04:34 23.56275 -75.87821 16 ft 26 kts 298°
2026-05-05 04:34 23.56363 -75.87997 16 ft 26 kts 297°
2026-05-05 04:34 23.56446 -75.88179 16 ft 27 kts 297°
2026-05-05 04:34 23.56531 -75.88358 16 ft 27 kts 298°
2026-05-05 04:35 23.56618 -75.88537 16 ft 22 kts 297°
2026-05-05 04:35 23.56671 -75.88623 16 ft 5 kts 292°
2026-05-05 04:35 23.56653 -75.88628 16 ft 10 kts 98°
2026-05-05 04:35 23.56648 -75.88598 16 ft 0 kts 116°
2026-05-05 04:36 23.56631 -75.88561 16 ft 26 kts 116°
2026-05-05 04:36 23.56451 -75.88184 17 ft 82 kts 115°
2026-05-05 04:36 23.56178 -75.87590 254 ft 89 kts 114°
2026-05-05 04:36 23.55877 -75.86946 545 ft 104 kts 115°
2026-05-05 04:37 23.55512 -75.86210 875 ft 115 kts 116°
2026-05-05 04:37 23.55144 -75.85454 1380 ft 112 kts 116°
2026-05-05 04:37 23.54780 -75.84699 1867 ft 111 kts 116°
2026-05-05 04:37 23.54419 -75.83949 2376 ft 113 kts 116°
2026-05-05 04:38 23.54052 -75.83182 2886 ft 116 kts 116°
2026-05-05 04:38 23.53671 -75.82387 3392 ft 122 kts 117°
2026-05-05 04:38 23.53222 -75.81425 3719 ft 156 kts 116°
2026-05-05 04:38 23.52540 -75.80433 4213 ft 177 kts 139°
2026-05-05 04:39 23.51341 -75.79912 4529 ft 201 kts 172°
2026-05-05 04:39 23.49951 -75.80181 5029 ft 209 kts 204°
2026-05-05 04:39 23.48747 -75.81100 5578 ft 214 kts 220°
2026-05-05 04:39 23.47612 -75.82186 6087 ft 219 kts 222°
2026-05-05 04:40 23.46421 -75.83252 6594 ft 225 kts 219°
2026-05-05 04:40 23.45141 -75.84258 7100 ft 229 kts 216°
2026-05-05 04:40 23.43789 -75.85195 7601 ft 231 kts 213°
2026-05-05 04:40 23.42391 -75.86076 8103 ft 233 kts 211°
2026-05-05 04:41 23.40977 -75.86912 8599 ft 235 kts 210°
2026-05-05 04:41 23.39526 -75.87740 9101 ft 236 kts 210°
2026-05-05 04:41 23.38057 -75.88597 9600 ft 236 kts 214°
2026-05-05 04:41 23.36958 -75.89860 10072 ft 233 kts 240°
2026-05-05 04:42 23.36533 -75.91541 10573 ft 232 kts 267°
2026-05-05 04:42 23.36890 -75.93247 11085 ft 234 kts 292°
2026-05-05 04:42 23.37745 -75.94761 11611 ft 236 kts 303°
2026-05-05 04:42 23.38728 -75.96201 12115 ft 238 kts 304°
2026-05-05 04:43 23.39705 -75.97655 12617 ft 238 kts 302°
2026-05-05 04:43 23.40639 -75.99149 13119 ft 239 kts 300°
2026-05-05 04:43 23.41523 -76.00684 13622 ft 239 kts 298°
2026-05-05 04:43 23.42366 -76.02250 14125 ft 239 kts 296°
2026-05-05 04:44 23.43176 -76.03831 14626 ft 239 kts 295°
2026-05-05 04:44 23.43966 -76.05424 15127 ft 239 kts 295°
2026-05-05 04:44 23.44747 -76.07032 15630 ft 239 kts 294°
2026-05-05 04:44 23.45515 -76.08630 16058 ft 242 kts 294°
2026-05-05 04:45 23.46299 -76.10272 16438 ft 246 kts 294°
2026-05-05 04:45 23.47116 -76.11921 16814 ft 250 kts 297°
2026-05-05 04:45 23.48141 -76.13475 17195 ft 254 kts 304°
2026-05-05 04:45 23.49310 -76.14940 17576 ft 257 kts 307°
2026-05-05 04:46 23.50550 -76.16353 17953 ft 259 kts 309°
2026-05-05 04:46 23.51831 -76.17740 18330 ft 260 kts 310°
2026-05-05 04:46 23.53137 -76.19118 18706 ft 262 kts 310°
2026-05-05 04:46 23.54457 -76.20491 19081 ft 263 kts 310°
2026-05-05 04:47 23.55786 -76.21862 19456 ft 263 kts 310°
2026-05-05 04:47 23.57123 -76.23235 19830 ft 264 kts 310°
2026-05-05 04:47 23.58476 -76.24624 20004 ft 271 kts 310°
2026-05-05 04:47 23.59874 -76.26063 20050 ft 280 kts 310°
2026-05-05 04:48 23.61297 -76.27523 20058 ft 280 kts 311°
2026-05-05 04:48 23.62700 -76.28956 20058 ft 279 kts 311°
2026-05-05 04:48 23.64118 -76.30402 20058 ft 279 kts 311°
2026-05-05 04:48 23.65328 -76.31637 20058 ft 278 kts 311°
2026-05-05 04:49 23.66741 -76.33081 20058 ft 278 kts 311°
2026-05-05 04:49 23.68152 -76.34524 20058 ft 278 kts 311°
2026-05-05 04:49 23.69561 -76.35967 20058 ft 277 kts 311°
2026-05-05 04:49 23.70969 -76.37410 20058 ft 277 kts 311°
2026-05-05 04:50 23.72377 -76.38852 20058 ft 277 kts 311°
2026-05-05 04:50 23.73765 -76.40276 20058 ft 277 kts 311°
2026-05-05 04:50 23.75169 -76.41716 20057 ft 277 kts 311°
2026-05-05 04:50 23.76578 -76.43163 20057 ft 277 kts 311°
2026-05-05 04:51 23.77987 -76.44610 20057 ft 277 kts 311°
2026-05-05 04:51 23.79390 -76.46050 20057 ft 277 kts 311°
2026-05-05 04:51 23.80797 -76.47496 20057 ft 277 kts 311°
2026-05-05 04:51 23.82200 -76.48939 20057 ft 277 kts 311°
2026-05-05 04:52 23.83606 -76.50383 20057 ft 277 kts 311°
2026-05-05 04:52 23.85009 -76.51827 20057 ft 277 kts 311°
2026-05-05 04:52 23.86414 -76.53272 20057 ft 277 kts 310°
2026-05-05 04:52 23.87806 -76.54705 20057 ft 277 kts 311°
2026-05-05 04:53 23.89209 -76.56149 20056 ft 277 kts 311°
2026-05-05 04:53 23.90611 -76.57592 20056 ft 277 kts 311°
2026-05-05 04:53 23.92013 -76.59037 20056 ft 277 kts 311°
2026-05-05 04:53 23.93415 -76.60481 20056 ft 277 kts 311°
2026-05-05 04:54 23.94817 -76.61926 20056 ft 277 kts 311°
2026-05-05 04:54 23.96218 -76.63370 20056 ft 277 kts 311°
2026-05-05 04:54 23.97606 -76.64801 20056 ft 277 kts 311°
2026-05-05 04:54 23.99007 -76.66246 20056 ft 277 kts 311°
2026-05-05 04:55 24.00407 -76.67690 20056 ft 277 kts 310°
2026-05-05 04:55 24.01809 -76.69135 20055 ft 276 kts 310°
2026-05-05 04:55 24.03206 -76.70577 20055 ft 276 kts 310°
2026-05-05 04:55 24.04607 -76.72024 20055 ft 276 kts 310°
2026-05-05 04:56 24.06006 -76.73470 20055 ft 276 kts 310°
2026-05-05 04:56 24.07407 -76.74918 20055 ft 276 kts 310°
2026-05-05 04:56 24.08787 -76.76345 20054 ft 276 kts 310°
2026-05-05 04:56 24.10187 -76.77793 20055 ft 276 kts 310°
2026-05-05 04:57 24.11588 -76.79242 20054 ft 276 kts 310°
2026-05-05 04:57 24.12986 -76.80689 20055 ft 276 kts 310°
2026-05-05 04:57 24.14381 -76.82133 20055 ft 276 kts 310°
2026-05-05 04:57 24.15778 -76.83579 20054 ft 276 kts 310°
2026-05-05 04:58 24.17174 -76.85024 20054 ft 276 kts 310°
2026-05-05 04:58 24.18569 -76.86469 20054 ft 276 kts 310°
2026-05-05 04:58 24.19965 -76.87916 20054 ft 276 kts 310°
2026-05-05 04:58 24.21364 -76.89366 20055 ft 276 kts 310°
2026-05-05 04:59 24.22742 -76.90796 20049 ft 276 kts 310°
2026-05-05 04:59 24.24141 -76.92246 20052 ft 276 kts 310°
2026-05-05 04:59 24.25535 -76.93692 20053 ft 276 kts 310°
2026-05-05 04:59 24.26928 -76.95137 20055 ft 276 kts 310°
2026-05-05 05:00 24.28323 -76.96586 20053 ft 276 kts 310°
2026-05-05 05:00 24.29716 -76.98032 20053 ft 275 kts 310°
2026-05-05 05:00 24.31105 -76.99476 20053 ft 275 kts 310°
2026-05-05 05:00 24.32495 -77.00920 20053 ft 275 kts 310°
2026-05-05 05:01 24.33884 -77.02364 20052 ft 275 kts 310°
2026-05-05 05:01 24.35272 -77.03808 20052 ft 275 kts 310°
2026-05-05 05:01 24.36663 -77.05255 20052 ft 275 kts 310°
2026-05-05 05:01 24.38054 -77.06703 20052 ft 275 kts 310°
2026-05-05 05:02 24.39426 -77.08131 20052 ft 275 kts 310°
2026-05-05 05:02 24.40814 -77.09576 20051 ft 275 kts 310°
2026-05-05 05:02 24.42203 -77.11023 20051 ft 275 kts 310°
2026-05-05 05:02 24.43590 -77.12467 20052 ft 275 kts 310°
2026-05-05 05:03 24.44975 -77.13912 20051 ft 275 kts 310°
2026-05-05 05:03 24.46361 -77.15356 20051 ft 275 kts 310°
2026-05-05 05:03 24.47748 -77.16803 20051 ft 275 kts 310°
2026-05-05 05:03 24.49136 -77.18250 20052 ft 275 kts 310°
2026-05-05 05:04 24.50678 -77.19535 20048 ft 282 kts 321°
2026-05-05 05:04 24.52441 -77.20515 20052 ft 286 kts 329°
2026-05-05 05:04 24.54311 -77.21301 20052 ft 289 kts 333°
2026-05-05 05:04 24.56235 -77.21969 20053 ft 291 kts 336°
2026-05-05 05:05 24.58198 -77.22574 20051 ft 292 kts 337°
2026-05-05 05:05 24.60167 -77.23136 20051 ft 293 kts 338°
2026-05-05 05:05 24.62118 -77.23671 20050 ft 293 kts 338°
2026-05-05 05:05 24.64100 -77.24201 20050 ft 293 kts 339°
2026-05-05 05:06 24.66111 -77.24734 20050 ft 293 kts 339°
2026-05-05 05:06 24.68093 -77.25258 20050 ft 293 kts 339°
2026-05-05 05:06 24.70079 -77.25782 20050 ft 293 kts 339°
2026-05-05 05:06 24.72040 -77.26300 20050 ft 293 kts 339°
2026-05-05 05:07 24.74027 -77.26827 20050 ft 293 kts 339°
2026-05-05 05:07 24.76010 -77.27353 20049 ft 293 kts 339°
2026-05-05 05:07 24.77994 -77.27880 20049 ft 293 kts 339°
2026-05-05 05:07 24.79977 -77.28406 20051 ft 294 kts 339°
2026-05-05 05:08 24.80749 -77.28611 20048 ft 294 kts 339°
2026-05-05 05:08 24.82743 -77.29142 20048 ft 294 kts 339°
2026-05-05 05:08 24.84729 -77.29670 20050 ft 294 kts 339°
2026-05-05 05:08 24.86722 -77.30206 20048 ft 293 kts 338°
2026-05-05 05:09 24.88616 -77.30957 20050 ft 287 kts 329°
2026-05-05 05:09 24.90398 -77.31928 20050 ft 284 kts 324°
2026-05-05 05:09 24.92103 -77.33012 20050 ft 282 kts 322°
2026-05-05 05:09 24.93744 -77.34144 20049 ft 281 kts 320°
2026-05-05 05:10 24.95378 -77.35328 20049 ft 281 kts 319°
2026-05-05 05:10 24.96993 -77.36533 20049 ft 280 kts 319°
2026-05-05 05:10 24.98599 -77.37754 20050 ft 280 kts 318°
2026-05-05 05:10 25.00197 -77.38986 20049 ft 280 kts 318°
2026-05-05 05:11 25.01789 -77.40222 20049 ft 279 kts 318°
2026-05-05 05:11 25.03375 -77.41460 20049 ft 279 kts 317°
2026-05-05 05:11 25.04961 -77.42702 20049 ft 279 kts 317°
2026-05-05 05:11 25.06542 -77.43944 20049 ft 279 kts 317°
2026-05-05 05:12 25.08123 -77.45190 20049 ft 279 kts 317°
2026-05-05 05:12 25.09706 -77.46438 20049 ft 279 kts 317°
2026-05-05 05:12 25.11284 -77.47685 20049 ft 279 kts 317°
2026-05-05 05:12 25.12862 -77.48934 20049 ft 279 kts 317°
2026-05-05 05:13 25.14440 -77.50182 20049 ft 279 kts 317°
2026-05-05 05:13 25.16019 -77.51432 20049 ft 279 kts 317°
2026-05-05 05:13 25.17598 -77.52683 20049 ft 279 kts 317°
2026-05-05 05:13 25.19158 -77.53920 20049 ft 279 kts 317°
2026-05-05 05:14 25.20735 -77.55171 20048 ft 279 kts 317°
2026-05-05 05:14 25.22313 -77.56423 20042 ft 279 kts 317°
2026-05-05 05:14 25.23916 -77.57698 19767 ft 287 kts 317°
2026-05-05 05:14 25.25552 -77.59002 19464 ft 291 kts 318°
2026-05-05 05:15 25.27198 -77.60310 19160 ft 292 kts 318°
2026-05-05 05:15 25.28847 -77.61621 18856 ft 293 kts 318°
2026-05-05 05:15 25.30507 -77.62939 18576 ft 293 kts 318°
2026-05-05 05:15 25.32161 -77.64252 18302 ft 293 kts 318°
2026-05-05 05:16 25.33796 -77.65549 18029 ft 293 kts 318°
2026-05-05 05:16 25.35459 -77.66869 17752 ft 292 kts 318°
2026-05-05 05:16 25.37114 -77.68184 17476 ft 292 kts 318°
2026-05-05 05:16 25.38764 -77.69495 17201 ft 292 kts 318°
2026-05-05 05:17 25.40411 -77.70805 16925 ft 291 kts 318°
2026-05-05 05:17 25.42057 -77.72116 16650 ft 291 kts 318°
2026-05-05 05:17 25.43702 -77.73426 16376 ft 291 kts 318°
2026-05-05 05:17 25.45323 -77.74718 16103 ft 291 kts 318°
2026-05-05 05:18 25.46965 -77.76027 15827 ft 290 kts 318°
2026-05-05 05:18 25.48610 -77.77339 15551 ft 290 kts 318°
2026-05-05 05:18 25.50248 -77.78646 15276 ft 292 kts 318°
2026-05-05 05:18 25.51908 -77.79974 15001 ft 296 kts 318°
2026-05-05 05:19 25.53583 -77.81314 14726 ft 298 kts 318°
2026-05-05 05:19 25.55265 -77.82658 14452 ft 299 kts 319°
2026-05-05 05:19 25.56955 -77.84009 14176 ft 299 kts 319°
2026-05-05 05:19 25.58623 -77.85341 13904 ft 299 kts 319°
2026-05-05 05:20 25.60309 -77.86689 13630 ft 298 kts 319°
2026-05-05 05:20 25.61987 -77.88028 13353 ft 295 kts 319°
2026-05-05 05:20 25.63648 -77.89354 13077 ft 293 kts 319°
2026-05-05 05:20 25.65299 -77.90674 12801 ft 292 kts 319°
2026-05-05 05:21 25.66941 -77.91989 12526 ft 291 kts 319°
2026-05-05 05:21 25.68580 -77.93300 12251 ft 290 kts 319°
2026-05-05 05:21 25.70214 -77.94610 11975 ft 290 kts 318°
2026-05-05 05:21 25.71851 -77.95924 11699 ft 289 kts 319°
2026-05-05 05:22 25.73480 -77.97232 11424 ft 289 kts 319°
2026-05-05 05:22 25.75109 -77.98542 11148 ft 289 kts 319°
2026-05-05 05:22 25.76735 -77.99850 10872 ft 289 kts 319°
2026-05-05 05:22 25.78340 -78.01140 10600 ft 288 kts 320°
2026-05-05 05:23 25.79962 -78.02444 10325 ft 288 kts 320°
2026-05-05 05:23 25.81603 -78.03763 10045 ft 288 kts 320°
2026-05-05 05:23 25.83203 -78.05051 9774 ft 288 kts 321°
2026-05-05 05:23 25.84824 -78.06354 9498 ft 287 kts 321°
2026-05-05 05:24 25.86440 -78.07654 9222 ft 287 kts 321°
2026-05-05 05:24 25.88056 -78.08954 8947 ft 287 kts 322°
2026-05-05 05:24 25.89676 -78.10257 8670 ft 286 kts 322°
2026-05-05 05:24 25.91287 -78.11553 8395 ft 286 kts 322°
2026-05-05 05:25 25.92897 -78.12848 8120 ft 286 kts 322°
2026-05-05 05:25 25.94511 -78.14147 7847 ft 285 kts 322°
2026-05-05 05:25 25.96117 -78.15439 7567 ft 285 kts 322°
2026-05-05 05:25 25.97725 -78.16729 7289 ft 285 kts 322°
2026-05-05 05:26 25.99322 -78.18015 7012 ft 280 kts 323°
2026-05-05 05:26 26.00887 -78.19275 6737 ft 276 kts 323°
2026-05-05 05:26 26.02408 -78.20503 6466 ft 272 kts 323°
2026-05-05 05:26 26.03933 -78.21735 6189 ft 269 kts 323°
2026-05-05 05:27 26.05444 -78.22957 5913 ft 268 kts 323°
2026-05-05 05:27 26.06954 -78.24177 5636 ft 267 kts 323°
2026-05-05 05:27 26.09800 -78.26818 5088 ft 267 kts 315°
2026-05-05 05:28 26.11076 -78.28320 4816 ft 267 kts 313°
2026-05-05 05:28 26.12321 -78.29856 4549 ft 267 kts 312°
2026-05-05 05:28 26.13549 -78.31411 4268 ft 267 kts 312°
2026-05-05 05:28 26.14770 -78.32973 3991 ft 267 kts 311°
2026-05-05 05:29 26.15973 -78.34523 3721 ft 268 kts 311°
2026-05-05 05:29 26.17183 -78.36099 3440 ft 267 kts 311°
2026-05-05 05:29 26.18388 -78.37676 3160 ft 267 kts 311°
2026-05-05 05:29 26.19584 -78.39256 2888 ft 267 kts 311°
2026-05-05 05:30 26.20737 -78.40876 2612 ft 267 kts 307°
2026-05-05 05:30 26.21758 -78.42606 2341 ft 266 kts 303°
2026-05-05 05:30 26.22712 -78.44358 2166 ft 262 kts 302°
2026-05-05 05:30 26.23631 -78.46088 2049 ft 257 kts 302°
2026-05-05 05:31 26.24522 -78.47783 2009 ft 251 kts 301°
2026-05-05 05:31 26.25387 -78.49449 2002 ft 246 kts 301°
2026-05-05 05:31 26.26238 -78.51087 2001 ft 242 kts 301°
2026-05-05 05:31 26.27079 -78.52705 2000 ft 240 kts 301°
2026-05-05 05:32 26.27910 -78.54307 1999 ft 238 kts 301°
2026-05-05 05:32 26.28738 -78.55904 2002 ft 237 kts 301°
2026-05-05 05:32 26.29562 -78.57493 2001 ft 236 kts 301°
2026-05-05 05:32 26.30384 -78.59078 2000 ft 236 kts 301°
2026-05-05 05:33 26.31194 -78.60639 2000 ft 235 kts 301°
2026-05-05 05:33 26.32011 -78.62215 2000 ft 235 kts 301°
2026-05-05 05:33 26.32830 -78.63796 2000 ft 235 kts 301°
2026-05-05 05:33 26.33646 -78.65373 2000 ft 234 kts 301°
2026-05-05 05:34 26.34463 -78.66951 2001 ft 234 kts 301°
2026-05-05 05:34 26.35276 -78.68525 2001 ft 234 kts 301°
2026-05-05 05:34 26.36081 -78.70084 2001 ft 234 kts 301°
2026-05-05 05:34 26.36892 -78.71656 2001 ft 234 kts 301°
2026-05-05 05:35 26.37706 -78.73235 2001 ft 234 kts 302°
2026-05-05 05:35 26.38516 -78.74808 2000 ft 234 kts 301°
2026-05-05 05:35 26.39325 -78.76379 1840 ft 230 kts 302°
2026-05-05 05:35 26.40099 -78.77890 1740 ft 220 kts 302°
2026-05-05 05:36 26.40839 -78.79342 1708 ft 210 kts 302°
2026-05-05 05:36 26.41574 -78.80705 1684 ft 201 kts 308°
2026-05-05 05:36 26.42501 -78.81816 1729 ft 190 kts 319°
2026-05-05 05:36 26.43483 -78.82790 1687 ft 187 kts 326°
2026-05-05 05:37 26.44540 -78.83171 1851 ft 113 kts
2026-05-05 05:37 26.45236 -78.82957 1882 ft 105 kts 24°
2026-05-05 05:37 26.45973 -78.82719 1776 ft 113 kts 22°
2026-05-05 05:37 26.46723 -78.82476 1710 ft 111 kts 22°
2026-05-05 05:38 26.47462 -78.82238 1697 ft 110 kts 22°
2026-05-05 05:38 26.48183 -78.81976 1694 ft 108 kts 27°
2026-05-05 05:38 26.48851 -78.81634 1688 ft 102 kts 32°
2026-05-05 05:38 26.49374 -78.81274 1683 ft 86 kts 39°
2026-05-05 05:39 26.49864 -78.80881 1610 ft 85 kts 44°
2026-05-05 05:39 26.50291 -78.80439 1483 ft 83 kts 50°
2026-05-05 05:39 26.50657 -78.79940 1334 ft 83 kts 57°
2026-05-05 05:39 26.50962 -78.79401 1169 ft 82 kts 63°
2026-05-05 05:40 26.51224 -78.78833 994 ft 82 kts 67°
2026-05-05 05:40 26.51465 -78.78258 809 ft 82 kts 68°
2026-05-05 05:40 26.51710 -78.77684 616 ft 82 kts 68°
2026-05-05 05:40 26.51979 -78.77165 587 ft 71 kts 61°
2026-05-05 05:41 26.52278 -78.76681 646 ft 78 kts 58°
2026-05-05 05:41 26.52588 -78.76184 693 ft 78 kts 61°
2026-05-05 05:41 26.52884 -78.75680 752 ft 77 kts 62°
2026-05-05 05:41 26.53152 -78.75158 769 ft 77 kts 65°
2026-05-05 05:42 26.53396 -78.74635 744 ft 76 kts 65°
2026-05-05 05:42 26.53643 -78.74124 726 ft 75 kts 66°
2026-05-05 05:42 26.53890 -78.73602 682 ft 74 kts 65°
2026-05-05 05:42 26.54135 -78.73106 612 ft 74 kts 66°
2026-05-05 05:43 26.54364 -78.72615 508 ft 64 kts 66°
2026-05-05 05:43 26.54570 -78.72199 319 ft 66 kts 63°
2026-05-05 05:43 26.54808 -78.71729 256 ft 71 kts 64°
2026-05-05 05:43 26.55034 -78.71236 146 ft 72 kts 64°
2026-05-05 05:44 26.55269 -78.70759 39 ft 66 kts 63°
2026-05-05 05:44 26.55466 -78.70360 14 ft 46 kts 62°
2026-05-05 05:44 26.55536 -78.70211 14 ft 8 kts 63°
2026-05-05 05:44 26.55578 -78.70127 14 ft 23 kts 62°
2026-05-05 05:45 26.55651 -78.69980 14 ft 34 kts 62°
2026-05-05 05:45 26.55815 -78.69662 14 ft 38 kts 62°
2026-05-05 05:45 26.55869 -78.69510 14 ft 20 kts 90°
2026-05-05 05:45 26.55830 -78.69379 14 ft 9 kts 151°
2026-05-05 05:46 26.55782 -78.69364 14 ft 11 kts 194°
2026-05-05 05:46 26.55752 -78.69387 14 ft 6 kts 226°